Copper Mountain, CO

10:15 PM MDT on July 22, 2017 (GMT -0600)
Copper Mountain

Weather History for KCCU - May, 2013

Change the Weather History Date:

Thursday, May 23, 2013

  Actual Average Record
Temperature  
Mean Temperature 45 °F -  
Max Temperature 53 °F - 55 °F (2005)
Min Temperature 37 °F - 19 °F (2002)
Degree Days  
Heating Degree Days 20    
Month to date heating degree days  
Cooling Degree Days 0    
Month to date cooling degree days  
Moisture  
Dew Point 19 °F    
Average Humidity 38    
Maximum Humidity 75    
Minimum Humidity 15    
Precipitation  
Precipitation 0.00 in - 0.08 in (2017)
Sea Level Pressure  
Sea Level Pressure 30.31 in    
Wind  
Wind Speed 17 mph (SSE)    
Max Wind Speed 31 mph    
Max Gust Speed 39 mph    
Visibility 10 miles    
Events      
T = Trace of Precipitation, MM = Missing Value Source: NWS Daily Summary

Daily Weather History Graph

Daily Weather History Graph

Search for Another Location

Airport or City:

Trip Planner

Search our weather history database for the weather conditions in past years. The results will help you decide how hot, cold, wet, or windy it might be!

Date:

Astronomy

May. 23, 2013 Rise Set
Actual Time 5:44 AM MDT 8:19 PM MDT
Civil Twilight 5:13 AM MDT 8:50 PM MDT
Nautical Twilight 4:34 AM MDT 9:29 PM MDT
Astronomical Twilight 3:51 AM MDT 10:12 PM MDT
Moon 6:55 PM MDT 4:30 AM MDT
Length of Visible Light 15h 37m
Length of Day
14h 34m
Waxing Gibbous, 97% of the Moon is Illuminated
May 23
Waxing Gibbous
May 24
Full
May 31
Last Quarter
Jun 8
New
Jun 16
First Quarter

Hourly Weather History & Observations

Time (MDT) Temp. Windchill Dew Point Humidity Pressure Visibility Wind Dir Wind Speed Gust Speed Precip Events Conditions
12:12 AM 41.0 °F 34.3 °F 26.6 °F 57% 30.31 in 10.0 mi SSE 11.5 mph 25.3 mph N/A   Clear
12:32 AM 41.0 °F 34.7 °F 24.8 °F 53% 30.31 in 10.0 mi SSE 10.4 mph 25.3 mph N/A   Clear
12:52 AM 41.0 °F 32.2 °F 24.8 °F 53% 30.31 in 10.0 mi SSE 18.4 mph 23.0 mph N/A   Clear
1:12 AM 41.0 °F 33.9 °F 24.8 °F 53% 30.30 in 10.0 mi SE 12.7 mph 26.5 mph N/A   Clear
1:32 AM 41.0 °F 33.5 °F 23.0 °F 49% 30.30 in 10.0 mi SSE 13.8 mph 17.3 mph N/A   Clear
1:52 AM 41.0 °F 31.6 °F 24.8 °F 53% 30.29 in 10.0 mi SSE 20.7 mph 27.6 mph N/A   Clear
2:12 AM 41.0 °F 32.8 °F 24.8 °F 53% 30.30 in 10.0 mi SSE 16.1 mph 27.6 mph N/A   Clear
2:32 AM 41.0 °F 31.6 °F 26.6 °F 57% 30.29 in 10.0 mi SSE 20.7 mph 25.3 mph N/A   Clear
2:52 AM 41.0 °F 32.5 °F 26.6 °F 57% 30.29 in 10.0 mi SE 17.3 mph 24.2 mph N/A   Clear
3:12 AM 41.0 °F 31.9 °F 28.4 °F 61% 30.29 in 10.0 mi SE 19.6 mph 27.6 mph N/A   Clear
3:32 AM 41.0 °F 33.5 °F 26.6 °F 57% 30.29 in 10.0 mi SE 13.8 mph 24.2 mph N/A   Clear
3:52 AM 41.0 °F 32.8 °F 26.6 °F 57% 30.29 in 10.0 mi SSE 16.1 mph 19.6 mph N/A   Clear
4:12 AM 41.0 °F 32.5 °F 26.6 °F 57% 30.29 in 10.0 mi SSE 17.3 mph 24.2 mph N/A   Clear
4:32 AM 39.2 °F 30.8 °F 26.6 °F 61% 30.29 in 10.0 mi SSE 15.0 mph 20.7 mph N/A   Clear
4:52 AM 37.4 °F 26.6 °F 26.6 °F 65% 30.29 in 10.0 mi SSE 21.9 mph 25.3 mph N/A   Clear
5:12 AM 37.4 °F 28.2 °F 28.4 °F 70% 30.29 in 10.0 mi SSE 16.1 mph 21.9 mph N/A   Clear
5:32 AM 37.4 °F 28.2 °F 26.6 °F 65% 30.29 in 10.0 mi SSE 16.1 mph 25.3 mph N/A   Clear
5:52 AM 37.4 °F 27.5 °F 26.6 °F 65% 30.30 in 10.0 mi South 18.4 mph - N/A   Clear
6:12 AM 37.4 °F 28.9 °F 28.4 °F 70% 30.30 in 10.0 mi SSE 13.8 mph 21.9 mph N/A   Clear
6:32 AM 37.4 °F 30.3 °F 30.2 °F 75% 30.31 in 10.0 mi SSE 10.4 mph 18.4 mph N/A   Clear
6:52 AM 37.4 °F 26.6 °F 28.4 °F 70% 30.30 in 10.0 mi SSE 21.9 mph 26.5 mph N/A   Clear
7:12 AM 41.0 °F 32.2 °F 26.6 °F 57% 30.30 in 10.0 mi SSE 18.4 mph - N/A   Clear
7:32 AM 41.0 °F 33.9 °F 26.6 °F 57% 30.30 in 10.0 mi South 12.7 mph 17.3 mph N/A   Clear
7:52 AM 41.0 °F 38.0 °F 26.6 °F 57% 30.31 in 10.0 mi SSE 4.6 mph 8.1 mph N/A   Clear
8:12 AM 41.0 °F 32.8 °F 26.6 °F 57% 30.31 in 10.0 mi South 16.1 mph 21.9 mph N/A   Clear
8:32 AM 41.0 °F 31.1 °F 23.0 °F 49% 30.31 in 10.0 mi SSE 23.0 mph 35.7 mph N/A   Clear
8:52 AM 41.0 °F 31.1 °F 26.6 °F 57% 30.32 in 10.0 mi SSE 23.0 mph 28.8 mph N/A   Clear
9:12 AM 44.6 °F 37.4 °F 19.4 °F 37% 30.33 in 10.0 mi SSE 16.1 mph 21.9 mph N/A   Clear
9:32 AM 44.6 °F 35.9 °F 17.6 °F 34% 30.33 in 10.0 mi South 23.0 mph 29.9 mph N/A   Clear
9:52 AM 44.6 °F 36.1 °F 15.8 °F 31% 30.33 in 10.0 mi South 21.9 mph 28.8 mph N/A   Clear
10:12 AM 44.6 °F 35.5 °F 14.0 °F 29% 30.33 in 10.0 mi South 25.3 mph - N/A   Clear
10:32 AM 44.6 °F 36.6 °F 17.6 °F 34% 30.33 in 10.0 mi SSE 19.6 mph - N/A   Clear
10:52 AM 46.4 °F 38.7 °F 17.6 °F 32% 30.34 in 10.0 mi SSE 20.7 mph 25.3 mph N/A   Clear
11:12 AM 46.4 °F 39.5 °F 19.4 °F 34% 30.34 in 10.0 mi SSE 17.3 mph 21.9 mph N/A   Clear
11:32 AM 46.4 °F 39.8 °F 19.4 °F 34% 30.34 in 10.0 mi SSE 16.1 mph 28.8 mph N/A   Clear
11:52 AM 48.2 °F - 21.2 °F 34% 30.34 in 10.0 mi South 17.3 mph 24.2 mph N/A   Clear
12:12 PM 46.4 °F 39.2 °F 23.0 °F 40% 30.35 in 10.0 mi South 18.4 mph 27.6 mph N/A   Clear
12:32 PM 51.8 °F - 23.0 °F 33% 30.33 in 10.0 mi SE 17.3 mph 21.9 mph N/A   Clear
12:52 PM 51.8 °F - 21.2 °F 30% 30.33 in 10.0 mi ESE 12.7 mph 21.9 mph N/A   Clear
1:12 PM 51.8 °F - 21.2 °F 30% 30.34 in 10.0 mi South 16.1 mph 21.9 mph N/A   Clear
1:32 PM 51.8 °F - 23.0 °F 33% 30.33 in 10.0 mi ESE 11.5 mph 27.6 mph N/A   Clear
1:52 PM 53.6 °F - 21.2 °F 28% 30.33 in 10.0 mi ESE 10.4 mph 21.9 mph N/A   Scattered Clouds
2:12 PM 53.6 °F - 19.4 °F 26% 30.33 in 10.0 mi SE 15.0 mph 24.2 mph N/A   Scattered Clouds
2:32 PM 53.6 °F - 19.4 °F 26% 30.31 in 10.0 mi ESE 16.1 mph 21.9 mph N/A   Mostly Cloudy
2:52 PM 53.6 °F - 19.4 °F 26% 30.31 in 10.0 mi SE 15.0 mph 26.5 mph N/A   Mostly Cloudy
3:12 PM 53.6 °F - 17.6 °F 24% 30.32 in 10.0 mi SE 8.1 mph 25.3 mph N/A   Mostly Cloudy
3:32 PM 53.6 °F - 15.8 °F 22% 30.31 in 10.0 mi SE 12.7 mph 18.4 mph N/A   Mostly Cloudy
3:52 PM 53.6 °F - 12.2 °F 19% 30.31 in 10.0 mi SSE 16.1 mph 26.5 mph N/A   Mostly Cloudy
4:12 PM 53.6 °F - 8.6 °F 16% 30.30 in 10.0 mi SSE 31.1 mph 39.1 mph N/A   Mostly Cloudy
4:32 PM 53.6 °F - 10.4 °F 18% 30.31 in 10.0 mi SSE 13.8 mph 28.8 mph N/A   Overcast
4:52 PM 53.6 °F - 6.8 °F 15% 30.30 in 10.0 mi SSE 25.3 mph 29.9 mph N/A   Overcast
5:12 PM 53.6 °F - 8.6 °F 16% 30.30 in 10.0 mi SSE 20.7 mph 25.3 mph N/A   Overcast
5:32 PM 53.6 °F - 10.4 °F 18% 30.31 in 10.0 mi SSE 18.4 mph 24.2 mph N/A   Mostly Cloudy
5:52 PM 53.6 °F - 10.4 °F 18% 30.30 in 10.0 mi SSE 19.6 mph 29.9 mph N/A   Overcast
6:12 PM 53.6 °F - 8.6 °F 16% 30.31 in 10.0 mi South 25.3 mph 34.5 mph N/A   Overcast
6:32 PM 53.6 °F - 8.6 °F 16% 30.31 in 10.0 mi South 16.1 mph 25.3 mph N/A   Overcast
6:52 PM 53.6 °F - 8.6 °F 16% 30.32 in 10.0 mi SSW 12.7 mph 20.7 mph N/A   Overcast
7:12 PM 53.6 °F - 8.6 °F 16% 30.32 in 10.0 mi South 18.4 mph 33.4 mph N/A   Scattered Clouds
7:32 PM 53.6 °F - 8.6 °F 16% 30.32 in 10.0 mi South 25.3 mph 31.1 mph N/A   Clear
7:52 PM 51.8 °F - 12.2 °F 21% 30.31 in 10.0 mi SSE 23.0 mph 34.5 mph N/A   Scattered Clouds
8:12 PM 51.8 °F - 14.0 °F 22% 30.33 in 10.0 mi South 16.1 mph 25.3 mph N/A   Scattered Clouds
8:32 PM 51.8 °F - 12.2 °F 21% 30.32 in 10.0 mi SSE 21.9 mph 28.8 mph N/A   Mostly Cloudy
8:52 PM 50.0 °F - 12.2 °F 22% 30.33 in 10.0 mi South 19.6 mph - N/A   Scattered Clouds
9:12 PM 50.0 °F - 12.2 °F 22% 30.33 in 10.0 mi South 21.9 mph 28.8 mph N/A   Clear
9:32 PM 50.0 °F - 10.4 °F 20% 30.33 in 10.0 mi South 25.3 mph 31.1 mph N/A   Clear
9:52 PM 48.2 °F - 12.2 °F 24% 30.33 in 10.0 mi South 28.8 mph 35.7 mph N/A   Clear
10:12 PM 48.2 °F - 12.2 °F 24% 30.33 in 10.0 mi South 24.2 mph 35.7 mph N/A   Clear
10:32 PM 48.2 °F - 12.2 °F 24% 30.34 in 10.0 mi South 21.9 mph 31.1 mph N/A   Clear
10:52 PM 46.4 °F 38.7 °F 12.2 °F 25% 30.34 in 10.0 mi South 20.7 mph 25.3 mph N/A   Clear
11:12 PM 46.4 °F 37.5 °F 12.2 °F 25% 30.33 in 10.0 mi South 27.6 mph - N/A   Clear
11:32 PM 46.4 °F 37.9 °F 10.4 °F 23% 30.33 in 10.0 mi SSE 25.3 mph - N/A   Clear
11:52 PM 46.4 °F 38.1 °F 14.0 °F 27% 30.32 in 10.0 mi SSE 24.2 mph - N/A   Clear